Tacoma, WA

7:34 AM PST on February 23, 2018 (GMT -0800)
McChord Air Force Base

Weather History for KTCM - August, 2014

Change the Weather History Date:

Saturday, August 16, 2014

  Actual Average Record
Temperature  
Mean Temperature 70 °F -  
Max Temperature 79 °F 75 °F 94 °F (2012)
Min Temperature 60 °F 51 °F 45 °F (1969)
Cooling Degree Days 4    
Growing Degree Days 20 (Base 50)    
Moisture  
Dew Point 59 °F    
Average Humidity 71    
Maximum Humidity 92    
Minimum Humidity 51    
Precipitation  
Precipitation 0.00 in - - ()
Sea Level Pressure  
Sea Level Pressure 30.11 in    
Wind  
Wind Speed 4 mph (NNW)    
Max Wind Speed 10 mph    
Max Gust Speed -    
Visibility 10 miles    
Events      
Averages and records for this station are not official NWS values.
T = Trace of Precipitation, MM = Missing Value Source: NWS Daily Summary

Daily Weather History Graph

Daily Weather History Graph

Search for Another Location

Airport or City:

Trip Planner

Search our weather history database for the weather conditions in past years. The results will help you decide how hot, cold, wet, or windy it might be!

Date:

Astronomy

Aug. 16, 2014 Rise Set
Actual Time 6:08 AM PDT 8:19 PM PDT
Civil Twilight 5:34 AM PDT 8:52 PM PDT
Nautical Twilight 4:53 AM PDT 9:33 PM PDT
Astronomical Twilight 4:06 AM PDT 10:19 PM PDT
Moon 11:36 PM PDT (8/16) 1:29 PM PDT (8/16)
Length of Visible Light 15h 17m
Length of Day
14h 10m
Waning Gibbous, 58% of the Moon is Illuminated
Aug 16
Waning Gibbous
Aug 17
Last Quarter
Aug 25
New
Sep 2
First Quarter
Sep 8
Full

Hourly Weather History & Observations

Time (PDT) Temp. Dew Point Humidity Pressure Visibility Wind Dir Wind Speed Gust Speed Precip Events Conditions
12:58 AM 64.4 °F 57.9 °F 79% 30.09 in 10.0 mi West 5.8 mph - N/A   Mostly Cloudy
1:58 AM 62.4 °F 57.2 °F 83% 30.09 in 10.0 mi South 3.5 mph - N/A   Clear
2:58 AM 60.8 °F 58.5 °F 92% 30.09 in 10.0 mi South 2.3 mph - N/A   Overcast
3:58 AM 62.6 °F 57.4 °F 83% 30.10 in 10.0 mi Calm Calm - N/A   Overcast
4:43 AM 62.6 °F 57.2 °F 82% 30.09 in 10.0 mi West 2.3 mph - N/A   Overcast
4:58 AM 62.4 °F 57.2 °F 83% 30.11 in 10.0 mi WNW 3.5 mph - N/A   Overcast
5:58 AM 62.4 °F 57.2 °F 83% 30.12 in 10.0 mi NW 2.3 mph - N/A   Overcast
6:08 AM 62.6 °F 57.2 °F 82% 30.11 in 10.0 mi NNW 2.3 mph - N/A   Overcast
6:58 AM 62.2 °F 58.1 °F 86% 30.13 in 10.0 mi North 1.2 mph - N/A   Overcast
7:58 AM 63.1 °F 58.6 °F 85% 30.13 in 10.0 mi Calm Calm - N/A   Overcast
8:58 AM 64.9 °F 59.2 °F 82% 30.13 in 10.0 mi West 2.3 mph - N/A   Overcast
9:58 AM 67.8 °F 59.9 °F 76% 30.13 in 10.0 mi WSW 3.5 mph - N/A   Overcast
10:58 AM 70.3 °F 60.1 °F 70% 30.13 in 10.0 mi West 3.5 mph - N/A   Partly Cloudy
11:08 AM 69.8 °F 60.8 °F 73% 30.12 in 10.0 mi South 1.2 mph - N/A   Mostly Cloudy
11:58 AM 71.8 °F 60.3 °F 67% 30.13 in 10.0 mi Variable 2.3 mph - N/A   Overcast
12:18 PM 71.6 °F 60.8 °F 69% 30.12 in 10.0 mi WSW 5.8 mph - N/A   Scattered Clouds
12:33 PM 73.4 °F 60.8 °F 65% 30.12 in 10.0 mi North 5.8 mph - N/A   Mostly Cloudy
12:38 PM 73.4 °F 60.8 °F 65% 30.12 in 10.0 mi Variable 3.5 mph - N/A   Scattered Clouds
12:48 PM 73.4 °F 60.8 °F 65% 30.12 in 10.0 mi NNW 4.6 mph - N/A   Mostly Cloudy
12:58 PM 73.8 °F 60.1 °F 62% 30.13 in 10.0 mi WNW 5.8 mph - N/A   Mostly Cloudy
1:03 PM 73.4 °F 60.8 °F 65% 30.12 in 10.0 mi NNW 8.1 mph - N/A   Mostly Cloudy
1:28 PM 75.2 °F 60.8 °F 61% 30.12 in 10.0 mi North 5.8 mph - N/A   Overcast
1:33 PM 73.4 °F 60.8 °F 65% 30.12 in 10.0 mi Variable 3.5 mph - N/A   Mostly Cloudy
1:58 PM 75.4 °F 60.1 °F 59% 30.12 in 10.0 mi Variable 2.3 mph - N/A   Partly Cloudy
2:58 PM 77.4 °F 60.1 °F 55% 30.11 in 10.0 mi North 8.1 mph - N/A   Scattered Clouds
3:58 PM 77.9 °F 60.3 °F 54% 30.11 in 10.0 mi NE 6.9 mph - N/A   Scattered Clouds
4:58 PM 79.2 °F 59.7 °F 51% 30.10 in 10.0 mi NE 5.8 mph - N/A   Scattered Clouds
5:58 PM 76.3 °F 59.5 °F 56% 30.09 in 10.0 mi North 8.1 mph - N/A   Partly Cloudy
6:58 PM 74.3 °F 60.4 °F 62% 30.09 in 10.0 mi North 10.4 mph - N/A   Partly Cloudy
7:58 PM 72.7 °F 60.3 °F 65% 30.10 in 10.0 mi North 6.9 mph - N/A   Scattered Clouds
8:58 PM 69.8 °F 59.2 °F 69% 30.10 in 10.0 mi NNE 3.5 mph - N/A   Clear
9:58 PM 68.0 °F 59.4 °F 74% 30.11 in 10.0 mi NNE 3.5 mph - N/A   Mostly Cloudy
10:58 PM 67.5 °F 59.5 °F 76% 30.11 in 10.0 mi NNE 5.8 mph - N/A   Mostly Cloudy
11:58 PM 65.5 °F 59.4 °F 81% 30.11 in 10.0 mi North 3.5 mph - N/A   Scattered Clouds